Regional Weather Roundup
Issued by NWS Midland/Odessa, TX

Skip options and go directly to product.
Home | Oldest Version | Next Version | Current Version | All | Text Only | Save Text | Print | Product List | Glossary On

Skip product version selection by date and time.   
167
ASUS44 KMAF 250201
RWRMAF
MIDLAND AREA WEATHER ROUNDUP
NATIONAL WEATHER SERVICE MIDLAND TX
800 PM CST SAT JAN 24 2015

...IN SOUTHWEST TEXAS AND SOUTHEAST NEW MEXICO...

CITY           SKY/WX    TMP DP  RH WIND       PRES   REMARKS
ALPINE         MOCLDY    44  19  36 SW18      30.23S WCI  37
ANDREWS        FAIR      47  30  50 W12       30.10S
ARTESIA        PTCLDY    37  32  81 S12       30.08F WCI  30
BIG SPRING     MOCLDY    47  33  57 SW9       30.11S
CARLSBAD       MOCLDY    47  28  47 SW6       30.08F
DRYDEN           N/A     50  29  44 SW9       30.14R
FORT STOCKTON  MOCLDY    45  32  60 SW6       30.14S
GUAD PASS      NOT AVBL
HOBBS          PTCLDY    41  32  70 SW10      30.09F WCI  35
MARFA          MOCLDY    37  21  52 S5        30.22S WCI  34
MIDLAND AIRPK  PTCLDY    51  31  46 W10       30.10S
MIDLAND INTL   MOCLDY    47  32  56 W8        30.10S
ODESSA         MOCLDY    45  30  55 W6        30.11S
PECOS          MOCLDY    46  32  59 SW5       30.13S
PRESIDIO       FAIR      50  29  45 CALM      30.20R
SEMINOLE       MOCLDY    44  32  60 SW10      30.09F WCI  39
SNYDER         PTCLDY   N/A N/A N/A SW10      30.06F
WINK           MOCLDY    44  29  55 S6        30.11R
$$
...OTHER STATIONS IN TEXAS...

CITY           SKY/WX    TMP DP  RH WIND       PRES   REMARKS
ABILENE        PTCLDY    47  35  63 S6        30.06S
AMARILLO       PTCLDY    37  29  72 W10       30.00R WCI  30
AUSTIN         CLOUDY    51  38  60 SW7       30.10S
BROWNSVILLE    PTCLDY    49  45  86 SE8       30.20S
CORPUS CHRISTI MOCLDY    49  42  77 SW9       30.16R
DALLAS FTW     PTCLDY    49  36  61 SW9       30.02S
DEL RIO        PTCLDY    48  36  63 CALM      30.14R
EL PASO        PTCLDY    46  24  42 CALM      30.19S
HOUSTON INT    CLOUDY    53  39  59 SW3       30.10S
LUBBOCK        PTCLDY    43  34  70 SW12      30.00F WCI  37
SAN ANGELO     PTCLDY    47  39  74 SW10      30.08S
SAN ANTONIO    CLOUDY    55  35  47 SW6       30.11F
WACO           PTCLDY    43  38  82 S7        30.06S WCI  39
WICHITA FALLS  NOT AVBL
$$
...OTHER LOCATIONS IN NEW MEXICO...

CITY           SKY/WX    TMP DP  RH WIND       PRES   REMARKS
ALAMAGORDO     MOCLDY    34  27  75 CALM      30.19R
ALBUQUERQUE    PTCLDY    44  19  36 N12G22    30.23R WCI  38
CANNON AFB     PTCLDY    38  29  69 W13       30.02R WCI  30
CLOVIS         PTCLDY    39  28  65 W15       30.01S WCI  31
HOLLOMAN AFB   MOCLDY    36  27  70 NE5       30.18R WCI  32
ROSWELL        CLEAR     38  33  82 W8        30.07R WCI  32
RUIDOSO        CLEAR     37  10  32 W7        30.18R WCI  32
SANTA FE       PTCLDY    32  21  64 NW5       30.19S WCI  27
TRUTH OR CONSE PTCLDY    40  19  43 W5        30.18R WCI  37
TUCUMCARI      MOCLDY    36  29  75 W7        30.00R WCI  30
$$

USA.gov is the U.S. government's official web portal to all federal, state and local government web resources and services.